Tulsa, OK

9:02 AM CST on January 20, 2017 (GMT -0600)
Tulsa International Airport

Weather History for KTUL - February, 2013

Change the Weather History Date:

Thursday, February 14, 2013

  Actual Average Record
Temperature  
Mean Temperature 48 °F 42 °F  
Max Temperature 60 °F 53 °F 80 °F (1910)
Min Temperature 36 °F 31 °F -10 °F (1905)
Degree Days  
Heating Degree Days 17 23  
Month to date heating degree days 289 345  
Since 1 July heating degree days 2297 2618  
Moisture  
Dew Point 29 °F    
Average Humidity 48    
Maximum Humidity 59    
Minimum Humidity 37    
Precipitation  
Precipitation 0.00 in 0.07 in 1.01 in (1951)
Month to date precipitation 0.39 0.83  
Year to date precipitation 1.93 2.49  
Sea Level Pressure  
Sea Level Pressure 30.07 in    
Wind  
Wind Speed 9 mph (NW)    
Max Wind Speed 22 mph    
Max Gust Speed 27 mph    
Visibility 10 miles    
Events      
T = Trace of Precipitation, MM = Missing Value Source: NWS Daily Summary

Daily Weather History Graph

Daily Weather History Graph

Search for Another Location

Airport or City:

Trip Planner

Search our weather history database for the weather conditions in past years. The results will help you decide how hot, cold, wet, or windy it might be!

Date:

Astronomy

Feb. 14, 2013 Rise Set
Actual Time 7:11 AM CST 6:04 PM CST
Civil Twilight 6:45 AM CST 6:30 PM CST
Nautical Twilight 6:15 AM CST 7:00 PM CST
Astronomical Twilight 5:45 AM CST 7:30 PM CST
Moon 9:24 AM CST (2/14) 10:56 PM CST (2/14)
Length of Visible Light 11h 44m
Length of Day
10h 52m
Waxing Crescent, 22% of the Moon is Illuminated
Feb 14
Waxing Crescent
Feb 17
First Quarter
Feb 25
Full
Mar 4
Last Quarter
Mar 11
New

Hourly Weather History & Observations

Time (CST) Temp. Windchill Dew Point Humidity Pressure Visibility Wind Dir Wind Speed Gust Speed Precip Events Conditions
12:53 AM 44.1 °F 39.5 °F 23.0 °F 43% 29.98 in 10.0 mi WSW 8.1 mph - N/A   Clear
1:53 AM 39.0 °F 33.4 °F 23.0 °F 53% 29.98 in 10.0 mi WSW 8.1 mph - N/A   Clear
2:53 AM 41.0 °F 35.2 °F 21.9 °F 47% 29.98 in 10.0 mi WSW 9.2 mph - N/A   Clear
3:53 AM 39.9 °F 34.5 °F 23.0 °F 51% 29.97 in 10.0 mi WSW 8.1 mph - N/A   Clear
4:53 AM 39.0 °F 34.0 °F 23.0 °F 53% 29.97 in 10.0 mi WSW 6.9 mph - N/A   Clear
5:53 AM 39.9 °F 33.9 °F 24.1 °F 53% 29.99 in 10.0 mi WSW 9.2 mph - N/A   Clear
6:53 AM 37.0 °F 34.5 °F 25.0 °F 62% 30.01 in 10.0 mi WSW 3.5 mph - N/A   Clear
7:53 AM 39.0 °F 34.8 °F 26.1 °F 60% 30.03 in 10.0 mi SW 5.8 mph - N/A   Clear
8:53 AM 43.0 °F 38.2 °F 28.0 °F 56% 30.06 in 10.0 mi West 8.1 mph - N/A   Clear
9:53 AM 46.9 °F - 30.0 °F 52% 30.07 in 10.0 mi NNW 8.1 mph - N/A   Clear
10:53 AM 51.1 °F - 32.0 °F 48% 30.07 in 10.0 mi North 9.2 mph - N/A   Clear
11:53 AM 54.0 °F - 33.1 °F 45% 30.07 in 10.0 mi North 9.2 mph - N/A   Clear
12:53 PM 55.9 °F - 34.0 °F 44% 30.06 in 10.0 mi North 11.5 mph - N/A   Clear
1:53 PM 57.0 °F - 33.1 °F 40% 30.04 in 10.0 mi North 9.2 mph - N/A   Partly Cloudy
2:53 PM 59.0 °F - 33.1 °F 38% 30.04 in 10.0 mi Variable 5.8 mph - N/A   Clear
3:53 PM 59.0 °F - 33.1 °F 38% 30.04 in 10.0 mi NNE 8.1 mph - N/A   Clear
4:53 PM 55.9 °F - 30.9 °F 39% 30.05 in 10.0 mi NNE 15.0 mph - N/A   Partly Cloudy
5:53 PM 54.0 °F - 30.9 °F 41% 30.08 in 10.0 mi NNE 8.1 mph - N/A   Mostly Cloudy
6:53 PM 52.0 °F - 32.0 °F 47% 30.12 in 10.0 mi NW 3.5 mph - N/A   Mostly Cloudy
7:53 PM 48.9 °F - 33.1 °F 54% 30.15 in 10.0 mi North 9.2 mph - N/A   Mostly Cloudy
8:53 PM 48.9 °F - 30.9 °F 50% 30.17 in 10.0 mi NNW 15.0 mph - N/A   Mostly Cloudy
9:53 PM 48.9 °F - 30.0 °F 48% 30.19 in 10.0 mi North 18.4 mph - N/A   Overcast
10:53 PM 46.0 °F 41.4 °F 30.0 °F 54% 30.21 in 10.0 mi NNW 9.2 mph - N/A   Overcast
11:53 PM 43.0 °F 39.5 °F 30.9 °F 62% 30.22 in 10.0 mi NW 5.8 mph - N/A   Overcast